Time,TemperatureF,DewpointF,PressureIn,WindDirection,WindDirectionDegrees,WindSpeedMPH,WindSpeedGustMPH,Humidity,HourlyPrecipIn,Conditions,Clouds,dailyrainin,SoftwareType,DateUTC
2013-10-06 00:01:00,42.1,21.0,30.21,SSE,165,0.0,0.0,43,0.00,,,0.00,weatherlink.com 1.10,2013-10-06 06:01:00,
2013-10-06 00:16:00,40.7,20.0,30.20,SW,222,0.0,0.0,44,0.00,,,0.00,weatherlink.com 1.10,2013-10-06 06:16:00,
2013-10-06 00:31:00,40.0,20.0,30.20,West,274,0.0,1.0,45,0.00,,,0.00,weatherlink.com 1.10,2013-10-06 06:31:00,
2013-10-06 00:46:00,40.0,20.0,30.20,West,274,0.0,1.0,45,0.00,,,0.00,weatherlink.com 1.10,2013-10-06 06:46:00,
2013-10-06 01:01:00,38.7,23.0,30.19,West,274,0.0,0.0,53,0.00,,,0.00,weatherlink.com 1.10,2013-10-06 07:01:00,
2013-10-06 01:16:00,37.6,24.0,30.19,West,274,0.0,1.0,59,0.00,,,0.00,weatherlink.com 1.10,2013-10-06 07:16:00,
2013-10-06 01:31:00,36.8,25.0,30.19,West,274,0.0,1.0,62,0.00,,,0.00,weatherlink.com 1.10,2013-10-06 07:31:00,
2013-10-06 01:46:00,36.1,25.0,30.19,West,274,0.0,1.0,65,0.00,,,0.00,weatherlink.com 1.10,2013-10-06 07:46:00,
2013-10-06 02:01:00,35.9,25.0,30.19,West,274,0.0,0.0,65,0.00,,,0.00,weatherlink.com 1.10,2013-10-06 08:01:00,
2013-10-06 02:16:00,35.6,24.0,30.19,West,274,0.0,1.0,64,0.00,,,0.00,weatherlink.com 1.10,2013-10-06 08:16:00,
2013-10-06 02:31:00,35.3,25.0,30.18,West,274,0.0,0.0,66,0.00,,,0.00,weatherlink.com 1.10,2013-10-06 08:31:00,
2013-10-06 02:46:00,34.7,25.0,30.18,West,274,0.0,0.0,68,0.00,,,0.00,weatherlink.com 1.10,2013-10-06 08:46:00,
2013-10-06 03:02:00,34.1,24.0,30.18,West,274,0.0,0.0,67,0.00,,,0.00,weatherlink.com 1.10,2013-10-06 09:02:00,
2013-10-06 03:17:00,33.6,24.0,30.19,West,274,0.0,0.0,69,0.00,,,0.00,weatherlink.com 1.10,2013-10-06 09:17:00,
2013-10-06 03:32:00,33.6,25.0,30.19,West,274,0.0,0.0,70,0.00,,,0.00,weatherlink.com 1.10,2013-10-06 09:32:00,
2013-10-06 03:47:00,33.4,25.0,30.19,West,274,0.0,0.0,71,0.00,,,0.00,weatherlink.com 1.10,2013-10-06 09:47:00,
2013-10-06 04:02:00,33.3,25.0,30.20,West,274,0.0,0.0,72,0.00,,,0.00,weatherlink.com 1.10,2013-10-06 10:02:00,
2013-10-06 04:17:00,33.0,25.0,30.20,West,274,0.0,0.0,73,0.00,,,0.00,weatherlink.com 1.10,2013-10-06 10:17:00,
2013-10-06 04:32:00,32.6,25.0,30.20,West,274,0.0,0.0,74,0.00,,,0.00,weatherlink.com 1.10,2013-10-06 10:32:00,
2013-10-06 04:47:00,32.5,26.0,30.21,West,274,0.0,0.0,76,0.00,,,0.00,weatherlink.com 1.10,2013-10-06 10:47:00,
2013-10-06 05:02:00,32.4,26.0,30.21,West,274,0.0,0.0,76,0.00,,,0.00,weatherlink.com 1.10,2013-10-06 11:02:00,
2013-10-06 05:17:00,32.5,25.0,30.21,West,274,0.0,0.0,75,0.00,,,0.00,weatherlink.com 1.10,2013-10-06 11:17:00,
2013-10-06 05:32:00,33.4,25.0,30.22,West,274,0.0,0.0,72,0.00,,,0.00,weatherlink.com 1.10,2013-10-06 11:32:00,
2013-10-06 05:47:00,33.9,25.0,30.22,West,274,0.0,0.0,69,0.00,,,0.00,weatherlink.com 1.10,2013-10-06 11:47:00,
2013-10-06 06:02:00,33.9,25.0,30.22,West,274,0.0,0.0,69,0.00,,,0.00,weatherlink.com 1.10,2013-10-06 12:02:00,
2013-10-06 06:17:00,33.1,25.0,30.23,West,274,0.0,0.0,71,0.00,,,0.00,weatherlink.com 1.10,2013-10-06 12:17:00,
2013-10-06 06:32:00,32.5,25.0,30.23,West,274,0.0,0.0,73,0.00,,,0.00,weatherlink.com 1.10,2013-10-06 12:32:00,
2013-10-06 06:47:00,31.9,25.0,30.22,West,274,0.0,1.0,77,0.00,,,0.00,weatherlink.com 1.10,2013-10-06 12:47:00,
2013-10-06 07:02:00,31.5,25.0,30.22,West,274,0.0,0.0,78,0.00,,,0.00,weatherlink.com 1.10,2013-10-06 13:02:00,
2013-10-06 07:17:00,31.2,26.0,30.22,West,274,0.0,0.0,80,0.00,,,0.00,weatherlink.com 1.10,2013-10-06 13:17:00,
2013-10-06 07:32:00,32.0,25.0,30.22,West,274,0.0,0.0,76,0.00,,,0.00,weatherlink.com 1.10,2013-10-06 13:32:00,
2013-10-06 07:47:00,33.8,25.0,30.23,West,274,0.0,0.0,71,0.00,,,0.00,weatherlink.com 1.10,2013-10-06 13:47:00,
2013-10-06 08:02:00,35.9,25.0,30.23,WSW,242,0.0,1.0,66,0.00,,,0.00,weatherlink.com 1.10,2013-10-06 14:02:00,
2013-10-06 08:17:00,37.8,26.0,30.23,WSW,242,0.0,0.0,62,0.00,,,0.00,weatherlink.com 1.10,2013-10-06 14:17:00,
2013-10-06 08:32:00,39.6,28.0,30.23,WSW,242,0.0,0.0,63,0.00,,,0.00,weatherlink.com 1.10,2013-10-06 14:32:00,
2013-10-06 08:47:00,42.1,28.0,30.24,WSW,242,0.0,0.0,58,0.00,,,0.00,weatherlink.com 1.10,2013-10-06 14:47:00,
2013-10-06 09:02:00,44.4,28.0,30.23,WSW,242,0.0,0.0,52,0.00,,,0.00,weatherlink.com 1.10,2013-10-06 15:02:00,
2013-10-06 09:17:00,46.4,27.0,30.23,WSW,242,0.0,1.0,48,0.00,,,0.00,weatherlink.com 1.10,2013-10-06 15:17:00,
2013-10-06 09:32:00,48.7,28.0,30.23,WSW,242,0.0,0.0,45,0.00,,,0.00,weatherlink.com 1.10,2013-10-06 15:32:00,
2013-10-06 09:47:00,50.8,29.0,30.22,SSW,204,0.0,2.0,43,0.00,,,0.00,weatherlink.com 1.10,2013-10-06 15:47:00,
2013-10-06 10:02:00,52.5,27.0,30.23,SE,143,1.0,2.0,38,0.00,,,0.00,weatherlink.com 1.10,2013-10-06 16:02:00,
2013-10-06 10:17:00,54.5,26.0,30.23,SSE,149,0.0,2.0,34,0.00,,,0.00,weatherlink.com 1.10,2013-10-06 16:17:00,
2013-10-06 10:33:00,55.8,26.0,30.22,SSW,203,0.0,1.0,32,0.00,,,0.00,weatherlink.com 1.10,2013-10-06 16:33:00,
2013-10-06 10:48:00,57.1,26.0,30.22,ESE,103,0.0,1.0,30,0.00,,,0.00,weatherlink.com 1.10,2013-10-06 16:48:00,
2013-10-06 11:03:00,58.4,26.0,30.22,SE,129,0.0,3.0,29,0.00,,,0.00,weatherlink.com 1.10,2013-10-06 17:03:00,
2013-10-06 11:18:00,59.1,24.0,30.21,South,172,0.0,2.0,26,0.00,,,0.00,weatherlink.com 1.10,2013-10-06 17:18:00,
2013-10-06 11:33:00,59.8,26.0,30.21,ENE,61,0.0,3.0,28,0.00,,,0.00,weatherlink.com 1.10,2013-10-06 17:33:00,
2013-10-06 11:48:00,60.7,25.0,30.21,SE,134,0.0,2.0,25,0.00,,,0.00,weatherlink.com 1.10,2013-10-06 17:48:00,
2013-10-06 12:03:00,60.8,24.0,30.21,NNE,26,1.0,2.0,24,0.00,,,0.00,weatherlink.com 1.10,2013-10-06 18:03:00,
2013-10-06 12:18:00,61.7,23.0,30.21,ENE,68,0.0,2.0,23,0.00,,,0.00,weatherlink.com 1.10,2013-10-06 18:18:00,
2013-10-06 12:33:00,62.1,27.0,30.21,East,79,0.0,2.0,26,0.00,,,0.00,weatherlink.com 1.10,2013-10-06 18:33:00,
2013-10-06 12:48:00,62.7,24.0,30.20,SE,124,0.0,3.0,23,0.00,,,0.00,weatherlink.com 1.10,2013-10-06 18:48:00,
2013-10-06 13:03:00,63.1,23.0,30.20,NE,50,0.0,4.0,22,0.00,,,0.00,weatherlink.com 1.10,2013-10-06 19:03:00,
2013-10-06 13:18:00,63.0,24.0,30.19,NE,51,0.0,4.0,23,0.00,,,0.00,weatherlink.com 1.10,2013-10-06 19:18:00,
2013-10-06 13:33:00,63.7,25.0,30.18,ESE,108,1.0,2.0,23,0.00,,,0.00,weatherlink.com 1.10,2013-10-06 19:33:00,
2013-10-06 13:48:00,64.3,24.0,30.18,ENE,75,2.0,3.0,22,0.00,,,0.00,weatherlink.com 1.10,2013-10-06 19:48:00,
2013-10-06 14:03:00,64.9,26.0,30.17,East,83,0.0,3.0,23,0.00,,,0.00,weatherlink.com 1.10,2013-10-06 20:03:00,
2013-10-06 14:18:00,65.9,26.0,30.17,NNE,31,0.0,2.0,22,0.00,,,0.00,weatherlink.com 1.10,2013-10-06 20:18:00,
2013-10-06 14:48:00,65.8,26.0,30.16,NNE,31,0.0,4.0,22,0.00,,,0.00,weatherlink.com 1.10,2013-10-06 20:48:00,
2013-10-06 15:03:00,66.1,26.0,30.16,ENE,59,0.0,3.0,22,0.00,,,0.00,weatherlink.com 1.10,2013-10-06 21:03:00,
2013-10-06 15:18:00,66.4,29.0,30.16,ENE,59,0.0,2.0,25,0.00,,,0.00,weatherlink.com 1.10,2013-10-06 21:18:00,
2013-10-06 15:33:00,67.3,28.0,30.16,SSW,198,0.0,2.0,23,0.00,,,0.00,weatherlink.com 1.10,2013-10-06 21:33:00,
2013-10-06 15:48:00,66.9,28.0,30.16,NE,51,3.0,6.0,23,0.00,,,0.00,weatherlink.com 1.10,2013-10-06 21:48:00,
2013-10-06 16:03:00,66.7,31.0,30.16,ENE,59,1.0,4.0,26,0.00,,,0.00,weatherlink.com 1.10,2013-10-06 22:03:00,
2013-10-06 16:18:00,66.6,31.0,30.16,NE,39,2.0,5.0,27,0.00,,,0.00,weatherlink.com 1.10,2013-10-06 22:18:00,
2013-10-06 16:48:00,65.5,31.0,30.16,NE,51,1.0,4.0,28,0.00,,,0.00,weatherlink.com 1.10,2013-10-06 22:48:00,
2013-10-06 17:03:00,65.5,30.0,30.16,NE,42,2.0,4.0,27,0.00,,,0.00,weatherlink.com 1.10,2013-10-06 23:03:00,
2013-10-06 17:33:00,64.9,30.0,30.17,East,89,0.0,4.0,27,0.00,,,0.00,weatherlink.com 1.10,2013-10-06 23:33:00,
2013-10-06 17:48:00,64.5,30.0,30.17,NE,52,0.0,1.0,27,0.00,,,0.00,weatherlink.com 1.10,2013-10-06 23:48:00,
2013-10-06 18:03:00,64.1,33.0,30.17,NE,52,0.0,0.0,31,0.00,,,0.00,weatherlink.com 1.10,2013-10-07 00:03:00,
2013-10-06 18:18:00,63.4,33.0,30.16,NE,52,0.0,0.0,32,0.00,,,0.00,weatherlink.com 1.10,2013-10-07 00:18:00,
2013-10-06 18:33:00,62.0,36.0,30.17,NE,52,0.0,0.0,38,0.00,,,0.00,weatherlink.com 1.10,2013-10-07 00:33:00,
2013-10-06 18:48:00,59.3,38.0,30.17,NE,52,0.0,0.0,45,0.00,,,0.00,weatherlink.com 1.10,2013-10-07 00:48:00,
2013-10-06 19:03:00,57.0,38.0,30.17,NE,52,0.0,0.0,50,0.00,,,0.00,weatherlink.com 1.10,2013-10-07 01:03:00,
2013-10-06 19:18:00,54.8,39.0,30.17,NE,52,0.0,0.0,56,0.00,,,0.00,weatherlink.com 1.10,2013-10-07 01:18:00,
2013-10-06 19:34:00,53.2,39.0,30.17,NE,52,0.0,0.0,60,0.00,,,0.00,weatherlink.com 1.10,2013-10-07 01:34:00,
2013-10-06 19:49:00,52.0,40.0,30.17,NE,52,0.0,0.0,63,0.00,,,0.00,weatherlink.com 1.10,2013-10-07 01:49:00,
2013-10-06 20:04:00,50.9,39.0,30.17,NE,52,0.0,0.0,65,0.00,,,0.00,weatherlink.com 1.10,2013-10-07 02:04:00,
2013-10-06 20:19:00,50.0,39.0,30.18,NE,52,0.0,0.0,67,0.00,,,0.00,weatherlink.com 1.10,2013-10-07 02:19:00,
2013-10-06 20:49:00,48.1,39.0,30.18,NE,52,0.0,0.0,71,0.00,,,0.00,weatherlink.com 1.10,2013-10-07 02:49:00,
2013-10-06 21:04:00,47.3,39.0,30.18,NE,52,0.0,0.0,72,0.00,,,0.00,weatherlink.com 1.10,2013-10-07 03:04:00,
2013-10-06 21:19:00,46.8,39.0,30.17,NE,52,0.0,0.0,73,0.00,,,0.00,weatherlink.com 1.10,2013-10-07 03:19:00,
2013-10-06 21:34:00,46.3,38.0,30.17,NE,52,0.0,0.0,74,0.00,,,0.00,weatherlink.com 1.10,2013-10-07 03:34:00,
2013-10-06 21:49:00,46.0,38.0,30.17,NE,52,0.0,0.0,74,0.00,,,0.00,weatherlink.com 1.10,2013-10-07 03:49:00,
2013-10-06 22:04:00,45.7,37.0,30.16,NE,52,0.0,2.0,73,0.00,,,0.00,weatherlink.com 1.10,2013-10-07 04:04:00,
2013-10-06 22:19:00,45.6,37.0,30.16,NE,52,0.0,0.0,71,0.00,,,0.00,weatherlink.com 1.10,2013-10-07 04:19:00,
2013-10-06 22:34:00,45.5,36.0,30.16,NE,52,0.0,0.0,69,0.00,,,0.00,weatherlink.com 1.10,2013-10-07 04:34:00,
2013-10-06 22:49:00,45.1,36.0,30.16,NE,52,0.0,0.0,70,0.00,,,0.00,weatherlink.com 1.10,2013-10-07 04:49:00,
2013-10-06 23:04:00,44.5,36.0,30.16,NE,52,0.0,0.0,72,0.00,,,0.00,weatherlink.com 1.10,2013-10-07 05:04:00,
2013-10-06 23:19:00,43.8,36.0,30.15,NE,52,0.0,0.0,74,0.00,,,0.00,weatherlink.com 1.10,2013-10-07 05:19:00,
2013-10-06 23:34:00,43.1,36.0,30.15,NE,52,0.0,0.0,76,0.00,,,0.00,weatherlink.com 1.10,2013-10-07 05:34:00,
2013-10-06 23:49:00,42.8,36.0,30.14,NE,52,0.0,0.0,76,0.00,,,0.00,weatherlink.com 1.10,2013-10-07 05:49:00,